Location: Grundy Observatory
(40.0525°N, 76.3328°W)
Time: 13:19:52
(UTC-04:00)

Daily predictions for brighter satellites

Satellite Brightness Start Highest point End
(mag) Time Altitude Azimuth Time Altitude Azimuth Time Altitude Azimuth
Envisat 3.1 21:04:53 10° SSE 21:09:58 87° WSW 21:15:05 10° NNW
Meteor 1-29 3.2 21:08:24 10° NNE 21:11:44 47° E 21:15:04 10° S
SL-8 R/B 4.2 21:10:12 10° WNW 21:14:51 51° SW 21:19:27 10° SE
USA 186 3.5 21:16:41 10° SSW 21:18:38 21° W 21:20:30 10° NW
Cosmos 1140 Rocket 3.5 21:16:05 10° SSW 21:21:15 83° ESE 21:26:25 10° NNE
Cosmos 2082 4.0 21:15:46 10° SSW 21:21:22 75° WNW 21:27:01 10° NNE
USA 32 4.1 21:16:37 10° S 21:21:46 63° E 21:26:58 10° N
SAR-Lupe-1 4.3 21:19:08 10° SSE 21:22:39 56° ENE 21:26:11 10° N
Cosmos 1242 Rocket 4.0 21:22:28 10° NNE 21:25:33 24° ENE 21:28:21 11° SE
Cosmos 2297 Rocket 2.6 21:22:24 10° SSW 21:28:01 70° WNW 21:33:42 10° NNE
Meteor 2-15 4.5 21:21:58 10° S 21:28:01 88° W 21:34:08 10° N
Resurs 01 Rocket 3.8 21:25:29 10° SSW 21:29:03 24° W 21:32:38 10° NW
Cosmos 1939 Rocket 3.5 21:29:02 10° S 21:32:57 57° W 21:36:57 10° NNW
H-2A ROCKET BODY 3.7 21:35:19 11° ESE 21:35:19 11° ESE 21:36:41 10° ESE
Cosmos 1867 3.8 21:30:35 10° S 21:35:45 47° ESE 21:40:58 10° NE
Cosmos 2100 Rocket 4.3 21:33:17 10° N 21:39:28 54° E 21:45:23 11° SSE
Cosmos 1459 Rocket 4.3 21:33:24 10° N 21:39:31 50° ENE 21:45:04 12° SSE
Cosmos 2061 Rocket 4.5 21:34:06 10° N 21:40:12 46° ENE 21:45:43 13° SSE
MetOp-B 4.4 21:35:50 11° SE 21:40:47 53° ENE 21:46:00 10° N
Cosmos 1340 Rocket 3.1 21:40:04 10° SSW 21:44:03 70° W 21:48:06 10° N
ATLAS 5 CENTAUR R/B 1.7 21:43:59 10° SSW 21:48:36 87° ESE 21:53:37 10° NE
Cosmos 2173 Rocket 4.1 21:46:37 10° N 21:52:43 62° E 21:58:07 14° SSE
SPOT 5 3.3 21:49:06 16° SE 21:52:44 47° ENE 21:57:34 10° N
Cosmos 1850 Rocket 4.0 21:47:44 10° SSW 21:52:54 89° WNW 21:58:08 10° NNE
Lacrosse 5 3.2 21:50:03 10° NNW 21:54:33 31° NE 21:58:57 10° E
Cosmos 2084 3.1 21:50:56 10° SSW 21:54:57 79° ESE 21:58:49 10° NE
YAOGAN 6 3.6 21:51:38 10° S 21:55:06 43° W 21:58:37 10° NNW
Helios 1B rocket 4.1 21:53:22 10° N 21:57:11 36° WNW 22:00:58 10° SW
Cosmos 2237 Rocket 3.6 21:52:15 10° NW 21:57:14 33° WSW 22:02:12 10° SSW
Cosmos 1726 3.4 21:54:12 10° NNE 21:57:19 25° ENE 21:58:49 19° ESE
CZ-4B DEB 4.5 21:55:31 10° SSW 21:58:06 27° W 22:00:43 10° NW
USA 234 3.2 21:52:34 10° NE 21:59:07 69° SE 22:05:37 10° SW
CZ-3B R/B 3.8 21:59:55 10° SW 22:02:48 78° SE 22:12:22 10° NE
Cosmos 1603 4.4 21:58:27 10° N 22:03:47 40° ENE 22:07:25 19° ESE
H-2A R/B 2.6 22:00:47 18° SE 22:04:22 45° ENE 22:09:29 10° N
ERS-1 Rocket 3.2 22:01:42 11° S 22:06:27 68° WSW 22:11:29 10° NNW
Atlas Centaur 2 2.8 22:04:17 10° SW 22:06:27 15° S 22:06:40 15° S
Cosmos 1802 Rocket 3.9 22:05:14 10° N 22:11:23 75° E 22:16:08 18° SSE
Abrixas rocket 4.5 22:09:08 10° NW 22:11:44 22° NNE 22:14:21 10° ENE
Cosmos 1818 3.6 22:07:12 10° NW 22:12:39 78° WSW 22:16:16 22° SSE
Cosmos 1725 Rocket 4.4 22:08:09 10° N 22:14:09 46° ENE 22:17:52 22° SE
Cosmos 1674 3.2 22:12:59 10° SSW 22:16:42 58° W 22:20:25 10° N
Cosmos 1908 3.6 22:13:30 10° NNW 22:17:20 61° W 22:20:03 18° S
SL-16 R/B 2.8 22:15:23 10° NNW 22:20:52 52° WSW 22:25:09 16° S
Cosmos 1943 4.5 22:16:06 10° N 22:20:57 29° ENE 22:24:10 17° ESE
Landsat 7 4.3 22:20:56 25° SE 22:23:16 45° ENE 22:27:48 10° N
ARGOS 3.2 22:20:18 19° S 22:24:19 79° WSW 22:29:46 10° NNW
Cosmos 1408 Rocket 3.5 22:23:35 17° S 22:26:56 83° W 22:31:16 10° N
KORONAS-FOTON 4.0 22:24:13 16° SSW 22:27:11 67° W 22:30:59 10° N
Cosmos 1356 Rocket 4.5 22:28:11 10° SSW 22:32:15 46° WNW 22:36:24 10° N
Tiangong 1 1.8 22:32:48 10° W 22:35:31 45° N 22:36:46 25° NE
DMSP B5D2-2 4.1 22:32:15 10° NNE 22:37:26 60° E 22:40:08 28° S
Terra 2.4 22:36:22 30° ESE 22:38:13 44° ENE 22:42:45 10° N
Cosmos 2058 3.8 22:38:51 30° ESE 22:39:20 31° E 22:43:04 10° NNE
Cosmos 2016 Rocket 4.1 22:37:06 10° N 22:43:22 73° W 22:47:32 22° S
Cosmos 1356 4.4 22:44:13 32° E 22:44:13 32° E 22:47:07 10° NNE
Cosmos 1500 Rocket 3.7 22:45:14 40° SSE 22:46:32 55° E 22:50:54 10° NNE
Cosmos 332 Rocket 3.7 22:47:49 10° NNW 22:52:45 90° WSW 22:54:33 40° SSE
ERBS 3.6 22:50:51 10° NNW 22:53:57 32° NE 22:54:40 29° ENE
Cosmos 2151 3.1 22:54:02 47° SE 22:54:50 56° E 22:59:03 10° NNE
Cosmos 1814 Rocket 4.0 22:50:47 10° NNW 22:56:10 83° ENE 22:58:11 39° SSE
CARTOSAT-1 3.5 22:55:32 47° SE 22:56:39 70° ENE 23:00:58 10° N
Meteor 1-27 4.4 22:52:33 10° N 22:58:19 60° ENE 23:00:29 37° SE
RESURS DK-1 2.3 22:54:14 10° NNW 22:58:24 77° WSW 22:59:21 52° S
SPOT 1/Viking Rocket 4.0 22:56:35 27° SSW 22:59:15 54° W 23:04:19 10° NNW
Cosmos 1486 Rocket 3.9 22:57:03 32° S 22:59:32 74° ESE 23:04:50 10° NNE
Cosmos 2233 Rocket 3.9 23:02:37 10° N 23:08:51 77° E 23:11:20 39° SSE
Cosmos 841 Rocket 3.6 23:04:29 10° NNW 23:09:44 67° ENE 23:11:13 45° SE
Cosmos 1328 Rocket 4.1 23:07:16 10° NNW 23:11:28 50° W 23:12:50 36° SW
SL-14 R/B 4.3 23:10:43 26° SW 23:12:27 42° WNW 23:16:14 10° N
Cosmos 2228 Rocket 3.6 23:08:27 10° NNW 23:12:57 55° W 23:14:28 37° SSW
Cosmos 1763 Rocket 3.3 23:08:04 10° NNW 23:13:12 89° WSW 23:14:35 49° SSE
Cosmos 1515 Rocket 3.7 23:10:45 10° NNW 23:15:03 65° W 23:16:02 48° SSW
H-2A R/B 1.9 23:17:20 62° SSE 23:18:03 89° WSW 23:22:21 10° NNW
Cosmos 1743 Rocket 4.4 23:16:55 27° SW 23:18:51 45° W 23:23:01 10° N
Cosmos 2263 Rocket 2.0 23:21:44 39° SSW 23:23:52 82° ESE 23:29:28 10° NNE
Cosmos 1151 Rocket 3.2 23:19:44 10° NNW 23:24:07 69° W 23:24:51 56° SSW
Cosmos 1300 4.1 23:20:47 10° NNW 23:24:08 30° W 23:25:01 27° WSW
Cosmos 1626 2.1 23:25:43 82° NW 23:25:43 82° NW 23:29:20 10° N
SL-19 R/B 4.2 23:23:06 10° NNE 23:28:26 77° WNW 23:30:50 35° SSW
Cosmos 1726 4.4 23:29:57 10° NW 23:32:24 17° W 23:33:27 15° WSW
IGS 5A 4.1 23:33:58 41° WSW 23:34:31 44° W 23:38:30 10° NNW
Lacrosse 5 2.1 23:32:48 10° NW 23:37:43 52° SW 23:38:08 51° SSW
Meteor 2-12 Rocket 4.5 23:32:33 10° NNW 23:38:37 74° W 23:40:35 44° SSW
Cosmos 371 Rocket 4.3 23:39:09 10° NW 23:43:29 34° WSW 23:44:22 32° SW
H-2A R/B 3.9 23:41:24 16° SW 23:43:57 22° W 23:48:07 10° NW
Cosmos 1503 Rocket 3.9 23:43:58 54° SSW 23:45:10 84° WNW 23:50:23 10° NNE
Abrixas rocket 3.8 23:45:37 10° NW 23:47:34 33° NW 23:47:34 33° NW
Cosmos 2285 Rocket 3.9 23:42:33 10° NNW 23:48:56 84° ENE 23:50:38 52° SSE
Cosmos 1869 4.0 23:47:01 10° N 23:50:18 46° NE 23:50:18 46° NE
CZ-4C R/B 3.4 23:53:11 80° WNW 23:53:11 80° WNW 23:57:28 10° NNW
